Location: Altenst�hlen
(53.5567°N, 8.9425°E)
Time: 15:29:48
(UTC+00:00)

Timation 2 Rocket - Pass Details

Date: 23 October 2019
Orbit: 908 x 1074 km, 70.0° (Epoch: 11 November)

Event Time Altitude Azimuth Distance (km) Brightness Sun altitude
Rises 19:32:10 0° 325° (NW) 3,552 7.8 -30.1°
Reaches altitude 10° 19:34:41 10° 327° (NNW) 2,604 6.9 -30.5°
Enters shadow 19:39:40 62° 349° (NNW) 1,028 4.1 -31.1°
